This is the latest recevied weather packets stored in our database for station/object W1ERB-13. If no packets are shown the sender has not sent any weather packets the latest 10 day(s).
| Time | Temp. | Humidity | Pressure | Rain* | Wind** | Luminosity | Snow |
|---|---|---|---|---|---|---|---|
| 1777921647 | 21.67° C | 35% | 1008.8 hPa | 0 mm | - | 657 W/m² | - |
| 1777921344 | 21.67° C | 35% | 1008.7 hPa | 0 mm | - | 644 W/m² | - |
| 1777921041 | 20.56° C | 36% | 1008.7 hPa | 0 mm | - | 673 W/m² | - |
| 1777920738 | 21.11° C | 33% | 1008.7 hPa | 0 mm | - | 675 W/m² | - |
| 1777920434 | 21.67° C | 32% | 1008.8 hPa | 0 mm | - | 649 W/m² | - |
| 1777920130 | 21.67° C | 30% | 1008.8 hPa | 0 mm | - | 622 W/m² | - |
| 1777919826 | 21.11° C | 36% | 1008.7 hPa | 0 mm | - | 661 W/m² | - |
| 1777919523 | 21.11° C | 31% | 1008.8 hPa | 0 mm | - | 668 W/m² | - |
| 1777919221 | 21.11° C | 32% | 1008.6 hPa | 0 mm | - | 675 W/m² | - |
| 1777918918 | 21.67° C | 31% | 1008.8 hPa | 0 mm | - | 685 W/m² | - |
| 1777918616 | 21.11° C | 31% | 1009 hPa | 0 mm | - | 695 W/m² | - |
| 1777918313 | 20.56° C | 33% | 1009.2 hPa | 0 mm | - | 705 W/m² | - |
| 1777918012 | 20.56° C | 32% | 1009.2 hPa | 0 mm | - | 698 W/m² | - |
| 1777917710 | 20.56° C | 31% | 1009.3 hPa | 0 mm | - | 696 W/m² | - |
| 1777917407 | 20.56° C | 34% | 1009.2 hPa | 0 mm | - | 689 W/m² | - |
| 1777917103 | 20.56° C | 33% | 1009.3 hPa | 0 mm | - | 695 W/m² | - |
| 1777916802 | 20° C | 35% | 1009.4 hPa | 0 mm | - | 691 W/m² | - |
| 1777916498 | 20.56° C | 34% | 1009.5 hPa | 0 mm | - | 717 W/m² | - |
| 1777916195 | 20° C | 32% | 1009.7 hPa | 0 mm | - | 704 W/m² | - |
| 1777915893 | 20.56° C | 31% | 1009.5 hPa | 0 mm | - | 707 W/m² | - |
| 1777915589 | 20° C | 33% | 1009.7 hPa | 0 mm | - | 712 W/m² | - |
| 1777915286 | 20° C | 33% | 1009.6 hPa | 0 mm | - | 715 W/m² | - |
| 1777914982 | 20° C | 32% | 1009.6 hPa | 0 mm | - | 719 W/m² | - |
| 1777914680 | 20° C | 34% | 1009.7 hPa | 0 mm | - | 720 W/m² | - |
| 1777914375 | 19.44° C | 32% | 1009.8 hPa | 0 mm | - | 722 W/m² | - |
* Rain latest hour (hover to see other rain measurements)
** Current wind speed in m/s (hover to see current wind gust speed)